Home > Weather > Bristol > Past weeks

Flag for USA Weather for the Past 2 Weeks in Bristol, Tennessee, USA

Now
70 °F

Overcast.


Feels Like: 76 °F
Forecast: 59 / 81 °F
Wind: 6 mph from Northeast

Location: Abingdon-Southwest Abingdon

Current Time: Apr 30, 2016 at 6:46:20 PM

Latest Report: Apr 30, 2016 at 5:55 PM


Visibility: 10 mi

Pressure: 30.02 "Hg (28.29 "Hg at 510m altitude)

Humidity: 61%

Dew Point: 56 °F

Location of BristolLocation

Historic Weather in Bristol — Graph

°F

Bristol Temperature Yesterday

Maximum temperature yesterday: 78 °F (at 4:35 PM)
Minimum temperature yesterday: 54 °F (at 6:55 AM)
Average temperature yesterday: 67 °F

High & Low Weather Summary for the Past Weeks

 TemperatureHumidityPressure
High82 °F (Apr 20, 4:55 PM)100% (Apr 22, 6:55 AM)30.45 "Hg (Apr 22, 6:55 AM)
Low42 °F (Apr 24, 4:15 AM)15% (Apr 17, 4:15 PM)29.84 "Hg (Apr 27, 7:15 PM)
Average65 °F55%30.11 "Hg
* Reported Apr 15 5:00 PM — Apr 30 5:15 PM, Bristol, Weather by CustomWeather, © 2016

Note: Actual official high and low records may vary slightly from our data, if they occured in-between our weather recording intervals... More about our weather records

Advertising

Bristol Weather History for the Previous 24 Hours

Scroll right to see more
 ConditionsComfort  
Time TempWeatherWind HumidityBarometerVisibility
5:15 PM
Sat, Apr 30
72 °FMore clouds than sun.3 mph57%30.01 "Hg10 mi
4:55 PM73 °FOvercast.6 mph55%30.01 "Hg10 mi
4:35 PM74 °FMostly cloudy.8 mph51%30.01 "Hg10 mi
4:15 PM75 °FOvercast.3 mph50%30.01 "Hg10 mi
3:55 PM75 °FPartly sunny.5 mph49%30.01 "Hg10 mi
3:35 PM76 °FScattered clouds.No wind50%30.02 "Hg10 mi
3:15 PM75 °FBroken clouds.7 mph56%30.02 "Hg10 mi
2:55 PM74 °FPartly sunny.5 mph59%30.03 "Hg10 mi
2:35 PM72 °FOvercast.5 mph61%30.04 "Hg10 mi
2:15 PM72 °FOvercast.6 mph61%30.04 "Hg10 mi
1:55 PM72 °FOvercast.3 mph63%30.04 "Hg10 mi
1:35 PM71 °FOvercast.5 mph62%30.05 "Hg10 mi
1:15 PM71 °FOvercast.3 mph61%30.05 "Hg10 mi
12:55 PM72 °FOvercast.7 mph56%30.05 "Hg10 mi
12:35 PM71 °FMore clouds than sun.5 mph58%30.06 "Hg10 mi
12:15 PM71 °FMore clouds than sun.6 mph58%30.06 "Hg10 mi
11:55 AM72 °FMore clouds than sun.5 mph57%30.05 "Hg10 mi
11:15 AM72 °FScattered clouds.9 mph54%30.05 "Hg10 mi
10:55 AM72 °FScattered clouds.9 mph54%30.05 "Hg10 mi
10:35 AM70 °FSunny.12 mph56%30.05 "Hg10 mi
10:15 AM69 °FSunny.13 mph57%30.04 "Hg10 mi
9:55 AM70 °FSunny.10 mph54%30.04 "Hg10 mi
9:35 AM68 °FScattered clouds.8 mph59%30.05 "Hg10 mi
9:15 AM67 °FOvercast.10 mph58%30.04 "Hg10 mi
8:55 AM65 °FOvercast.13 mph60%30.04 "Hg10 mi
8:35 AM64 °FOvercast.9 mph63%30.04 "Hg10 mi
8:15 AM64 °FOvercast.10 mph64%30.04 "Hg10 mi
7:55 AM63 °FScattered clouds.12 mph65%30.04 "Hg10 mi
7:35 AM62 °FSunny.12 mph65%30.03 "Hg10 mi
7:15 AM61 °FClear.12 mph67%30.03 "Hg10 mi
6:55 AM60 °FPassing clouds.8 mph68%30.02 "Hg10 mi
6:15 AM62 °FClear.6 mph63%30.03 "Hg10 mi
5:55 AM61 °FClear.5 mph66%30.03 "Hg10 mi
5:35 AM62 °FClear.8 mph63%30.03 "Hg10 mi
5:15 AM61 °FPassing clouds.5 mph65%30.03 "Hg10 mi
4:15 AM59 °FPassing clouds.8 mph73%30.02 "Hg10 mi
3:55 AM61 °FClear.No wind67%30.03 "Hg10 mi
3:15 AM61 °FClear.No wind72%30.03 "Hg10 mi
2:55 AM62 °FClear.No wind68%30.03 "Hg10 mi
2:15 AM61 °FClear.No wind75%30.04 "Hg10 mi
1:55 AM61 °FClear.No wind76%30.05 "Hg10 mi
1:15 AM62 °FClear.No wind75%30.07 "Hg10 mi
12:55 AM62 °FClear.No wind70%30.07 "Hg10 mi
12:15 AM62 °FClear.No wind77%30.07 "Hg10 mi
11:55 PM
Fri, Apr 29
62 °FClear.No wind74%30.08 "Hg10 mi
11:15 PM62 °FClear.No wind72%30.07 "Hg10 mi
10:35 PM63 °FClear.No wind70%30.06 "Hg10 mi
10:15 PM64 °FClear.No wind68%30.06 "Hg10 mi
9:55 PM65 °FClear.No wind66%30.06 "Hg10 mi
9:15 PM67 °FClear.No wind61%30.05 "Hg10 mi
8:55 PM68 °FSunny.No wind56%30.05 "Hg10 mi
7:55 PM72 °FSunny.5 mph44%30.03 "Hg10 mi
7:15 PM74 °FSunny.5 mph40%30.02 "Hg10 mi
6:55 PM75 °FSunny.7 mph37%30.02 "Hg10 mi
6:15 PM76 °FSunny.9 mph38%30.01 "Hg10 mi
Weather by CustomWeather, © 2016

See weather overviewHow to use our weather pages